20050112,000023,693401,33.142343,-120.020067,21.8,15.003,32.985,40.703,1235.44,0.0,3.540,14.668,14.641, NaN,24.418,   NaN,13.46,1014.13,71.31,13.82,18.0,19.2,13.6,14.1,293.4,294.5,13.5,14.0,NaN, NaN,10.3,216.4,266.3,1105488024,1105488024,1,0.6,000024,000024,269.1,33.142313,-120.019922,-0.70,NaN,NaN,15.007, NaN,NaN,NaN, NaN, NaN
20050112,000053,693432,33.142158,-120.020130,21.7,15.004,32.984,40.702,1252.40,0.0,3.521,14.668,14.642, NaN,24.417,   NaN,13.40,1014.13,71.07,13.76,16.8,18.1,13.2,14.0,290.3,291.4,13.2,14.0,NaN, NaN,10.8,178.1,180.6,1105488054,1105488054,1,1.6,000054,000054,271.6,33.142125,-120.019977,-0.88,NaN,NaN,15.008, NaN,NaN,NaN, NaN, NaN
20050112,000123,693462,33.142008,-120.020140,21.8,15.005,32.980,40.699,1211.36,0.0,3.521,14.671,14.642, NaN,24.414,   NaN,13.35,1014.10,70.52,13.70,13.2,14.9,13.3,14.0,289.6,291.1,13.4,14.2,NaN, NaN,10.3,198.8,212.7,1105488085,1105488085,1,1.6,000084,000085,279.7,33.141942,-120.020003,-0.68,NaN,NaN,15.009, NaN,NaN,NaN, NaN, NaN
20050112,000152,693490,33.141878,-120.020185,21.7,15.004,32.979,40.697,1185.86,0.0,3.502,14.672,14.643, NaN,24.413,   NaN,13.32,1014.10,69.95,13.67,10.1,12.6,13.3,13.9,290.8,293.1,13.4,14.0,NaN, NaN,11.4,23.1,41.8,1105488114,1105488114,1,0.9,000114,000114,277.7,33.141823,-120.020045,-0.48,NaN,NaN,15.008, NaN,NaN,NaN, NaN, NaN
20050112,000223,693521,33.141708,-120.020208,22.0,15.000,32.980,40.694,1205.75,0.0,3.483,14.666,14.641, NaN,24.415,   NaN,13.32,1014.11,69.62,13.66,13.5,14.6,13.2,13.9,289.8,290.6,13.3,14.0,NaN, NaN,10.5,346.9,191.9,1105488144,1105488144,1,0.8,000144,000144,260.2,33.141703,-120.020060,-0.57,NaN,NaN,15.004, NaN,NaN,NaN, NaN, NaN
20050112,000253,693551,33.141560,-120.020163,21.9,15.003,32.976,40.692,1203.08,0.0,3.426,14.662,14.636, NaN,24.411,   NaN,13.39,1014.03,70.54,13.74,26.3,25.6,12.5,12.9,291.0,290.0,12.8,13.2,NaN, NaN,11.0,354.3,149.4,1105488175,1105488175,1,0.2,000174,000175,257.6,33.141573,-120.020012,-0.78,NaN,NaN,15.007, NaN,NaN,NaN, NaN, NaN
20050112,000324,693582,33.141430,-120.020080,21.8,15.001,32.971,40.685,1228.41,0.0,3.294,14.662,14.636, NaN,24.408,   NaN,13.46,1014.04,71.92,13.84,36.6,37.1,11.2,10.5,295.7,296.0,11.7,11.0,NaN, NaN,11.8,177.4,165.7,1105488205,1105488205,1,3.4,000204,000205,255.4,33.141423,-120.019917,-0.89,NaN,NaN,15.005, NaN,NaN,NaN, NaN, NaN
20050112,000353,693612,33.141278,-120.020027,22.0,15.001,32.970,40.683,1240.87,0.0,3.445,14.665,14.640, NaN,24.407,   NaN,13.50,1014.09,72.87,13.86,36.5,37.2,10.5,10.2,295.2,295.8,11.0,10.6,NaN, NaN,12.9,6.0,155.1,1105488234,1105488234,1,1.1,000234,000234,258.4,33.141280,-120.019870,-0.66,NaN,NaN,15.005, NaN,NaN,NaN, NaN, NaN
20050112,000423,693642,33.141110,-120.019958,21.0,15.001,32.967,40.680,1204.55,0.0,3.426,14.669,14.643, NaN,24.404,   NaN,13.42,1014.07,72.16,13.78,32.9,32.8,10.9,11.7,292.0,291.6,11.3,12.1,NaN, NaN,12.1,147.7,188.0,1105488265,1105488265,1,0.5,000264,000265,253.1,33.141125,-120.019808,-1.11,NaN,NaN,15.005, NaN,NaN,NaN, NaN, NaN
20050112,000453,693671,33.140950,-120.019978,21.9,15.003,33.027,40.750,1217.42,0.0,3.445,14.666,14.641, NaN,24.451,   NaN,13.40,1013.94,71.61,13.78,34.3,33.7,11.4,12.1,291.8,290.9,11.7,12.5,NaN, NaN,12.0,309.3,225.2,1105488294,1105488294,1,1.1,000294,000294,256.3,33.140950,-120.019818,-0.88,NaN,NaN,15.007, NaN,NaN,NaN, NaN, NaN
20050112,000523,693701,33.140732,-120.020067,21.9,15.009,33.063,40.794,1217.18,0.0,3.445,14.663,14.638, NaN,24.477,   NaN,13.43,1014.06,71.48,13.82,29.9,30.0,11.8,12.7,291.4,291.0,11.9,12.8,NaN, NaN,12.3,301.8,195.3,1105488324,1105488324,1,2.2,000324,000324,273.4,33.140703,-120.019920,-0.79,NaN,NaN,15.013, NaN,NaN,NaN, NaN, NaN
20050112,000553,693731,33.140597,-120.020163,21.8,15.012,33.068,40.802,1211.82,0.0,3.426,14.664,14.639, NaN,24.480,   NaN,13.41,1014.11,70.74,13.77,15.4,16.7,12.8,13.7,289.1,289.9,12.7,13.6,NaN, NaN,12.0,214.7,220.4,1105488355,1105488355,1,1.8,000354,000355,277.6,33.140548,-120.020033,-0.34,NaN,NaN,15.016, NaN,NaN,NaN, NaN, NaN
20050112,000623,693762,33.140437,-120.020213,21.8,15.008,33.071,40.802,1224.93,0.0,3.370,14.669,14.642, NaN,24.483,   NaN,13.48,1014.08,71.21,13.84,11.4,12.1,13.1,13.6,291.5,292.2,13.1,13.6,NaN, NaN,11.4,52.9,149.9,1105488385,1105488385,1,0.3,000384,000385,278.2,33.140400,-120.020072,-0.33,NaN,NaN,15.012, NaN,NaN,NaN, NaN, NaN
20050112,000654,693792,33.140300,-120.020198,21.7,15.002,33.075,40.800,1186.01,0.0,3.370,14.673,14.643, NaN,24.487,   NaN,13.44,1014.07,70.60,13.78,12.6,12.1,13.6,14.0,294.6,294.4,13.8,14.1,NaN, NaN,11.2,197.8,181.3,1105488415,1105488415,1,1.9,000414,000415,286.2,33.140233,-120.020057,-0.30,NaN,NaN,15.006, NaN,NaN,NaN, NaN, NaN
20050112,000724,693822,33.140183,-120.020220,21.8,15.002,33.071,40.796,1162.09,0.0,3.464,14.670,14.643, NaN,24.485,   NaN,13.36,1014.18,69.04,13.69,6.1,6.2,14.2,14.5,293.0,293.1,14.4,14.6,NaN, NaN,12.7,193.1,199.3,1105488445,1105488445,1,1.6,000445,000445,286.6,33.140128,-120.020097,-0.25,NaN,NaN,15.006, NaN,NaN,NaN, NaN, NaN
20050112,000753,693851,33.140103,-120.020315,22.0,15.003,33.067,40.793,1137.34,0.0,3.502,14.670,14.642, NaN,24.481,   NaN,13.41,1014.22,69.43,13.72,3.1,5.7,13.3,13.7,292.5,295.1,13.3,13.7,NaN, NaN,12.5,245.8,240.7,1105488475,1105488475,1,0.8,000474,000475,287.4,33.140030,-120.020193,0.07,NaN,NaN,15.007, NaN,NaN,NaN, NaN, NaN
20050112,000824,693883,33.139993,-120.020487,21.6,15.005,33.064,40.791,1109.11,0.0,3.521,14.673,14.645, NaN,24.478,   NaN,13.43,1014.24,70.19,13.80,4.4,6.0,12.5,13.1,296.0,297.3,12.2,12.9,NaN, NaN,12.2,246.1,219.9,1105488505,1105488505,1,1.9,000505,000505,291.9,33.139923,-120.020345,-0.01,NaN,NaN,15.009, NaN,NaN,NaN, NaN, NaN
20050112,000854,693912,33.139952,-120.020702,21.7,15.006,33.064,40.792,1057.61,0.0,3.558,14.674,14.647, NaN,24.479,   NaN,13.42,1014.23,70.73,13.77,3.9,4.2,12.5,13.7,296.9,296.8,12.0,13.2,NaN, NaN,13.1,233.6,249.3,1105488536,1105488535,1,2.0,000535,000535,287.9,33.139892,-120.020578,-0.03,NaN,NaN,15.010, NaN,NaN,NaN, NaN, NaN
20050112,000923,693942,33.139900,-120.020968,21.8,15.003,33.064,40.790,1044.74,0.0,3.521,14.674,14.649, NaN,24.479,   NaN,13.40,1014.16,71.05,13.76,5.3,7.2,13.6,14.4,296.5,298.3,12.9,13.8,NaN, NaN,13.2,280.8,248.9,1105488565,1105488565,1,1.0,000564,000565,286.7,33.139842,-120.020838,-0.18,NaN,NaN,15.007, NaN,NaN,NaN, NaN, NaN
20050112,000953,693972,33.139863,-120.021225,21.7,15.004,33.064,40.791,1022.55,0.0,3.502,14.675,14.649, NaN,24.479,   NaN,13.37,1014.10,71.10,13.71,9.1,11.0,14.0,14.1,299.2,301.2,13.4,13.5,NaN, NaN,11.9,220.4,222.5,1105488595,1105488595,1,2.2,000594,000595,288.1,33.139783,-120.021093,-0.26,NaN,NaN,15.008, NaN,NaN,NaN, NaN, NaN
20050112,001023,694001,33.139788,-120.021445,21.7,15.004,33.061,40.787,1004.77,0.0,3.426,14.677,14.649, NaN,24.476,   NaN,13.33,1014.20,70.94,13.69,10.8,12.4,14.1,14.2,301.0,302.6,13.6,13.7,NaN, NaN,11.3,279.4,244.1,1105488625,1105488625,1,1.6,000624,000625,285.4,33.139718,-120.021315,-0.49,NaN,NaN,15.008, NaN,NaN,NaN, NaN, NaN
20050112,001053,694031,33.139687,-120.021650,21.8,15.003,33.063,40.789,978.99,0.0,3.445,14.676,14.649, NaN,24.478,   NaN,13.32,1014.13,70.94,13.66,14.3,15.6,13.9,14.2,302.0,303.2,13.4,13.8,NaN, NaN,11.7,241.2,235.4,1105488655,1105488655,1,1.6,000654,000655,281.2,33.139625,-120.021530,-0.40,NaN,NaN,15.007, NaN,NaN,NaN, NaN, NaN
20050112,001124,694063,33.139560,-120.021825,21.7,15.000,33.062,40.785,984.45,0.0,3.445,14.674,14.649, NaN,24.478,   NaN,13.37,1014.15,71.63,13.72,17.1,18.2,13.0,13.9,303.9,304.8,12.7,13.6,NaN, NaN,12.1,228.6,219.2,1105488685,1105488685,1,2.3,000685,000685,287.5,33.139492,-120.021708,-0.30,NaN,NaN,15.004, NaN,NaN,NaN, NaN, NaN
20050112,001154,694092,33.139492,-120.021983,21.7,15.006,33.056,40.783,1021.18,0.0,3.502,14.674,14.649, NaN,24.472,   NaN,13.36,1014.23,71.54,13.68,13.6,14.6,12.4,13.4,301.8,302.7,12.1,13.1,NaN, NaN,12.2,214.2,230.6,1105488715,1105488715,1,1.1,000714,000715,287.6,33.139417,-120.021877,-0.11,NaN,NaN,15.010, NaN,NaN,NaN, NaN, NaN
20050112,001224,694122,33.139417,-120.022218,21.8,15.004,33.054,40.780,1040.49,0.0,3.483,14.675,14.649, NaN,24.471,   NaN,13.49,1014.19,72.78,13.81,7.0,8.2,12.3,12.8,296.6,297.5,11.9,12.3,NaN, NaN,12.4,261.1,228.5,1105488746,1105488745,1,1.7,000745,000745,284.6,33.139367,-120.022108,-0.39,NaN,NaN,15.008, NaN,NaN,NaN, NaN, NaN
20050112,001253,694152,33.139363,-120.022452,21.8,15.006,33.057,40.784,1016.69,0.0,3.464,14.675,14.648, NaN,24.473,   NaN,13.52,1014.17,73.46,13.85,3.4,6.2,13.0,13.1,292.3,295.1,12.5,12.5,NaN, NaN,11.1,205.9,233.3,1105488775,1105488775,1,2.3,000774,000775,288.8,33.139293,-120.022343,-0.30,NaN,NaN,15.010, NaN,NaN,NaN, NaN, NaN
20050112,001323,694181,33.139312,-120.022692,21.9,15.003,33.053,40.777,889.06,0.0,3.540,14.675,14.649, NaN,24.470,   NaN,13.46,1014.19,73.38,13.79,3.0,5.3,13.1,13.6,291.9,294.2,12.5,13.0,NaN, NaN,13.6,269.9,258.0,1105488805,1105488805,1,1.3,000804,000805,283.4,33.139262,-120.022580,-0.17,NaN,NaN,15.007, NaN,NaN,NaN, NaN, NaN
20050112,001353,694211,33.139302,-120.022978,21.8,15.005,33.055,40.782,862.74,0.0,3.502,14.675,14.649, NaN,24.472,   NaN,13.59,1014.20,74.70,13.87,8.4,7.8,12.5,13.2,296.4,295.6,11.8,12.5,NaN, NaN,12.4,235.4,283.3,1105488835,1105488834,1,1.7,000834,000834,283.9,33.139225,-120.022862,-0.31,NaN,NaN,15.009, NaN,NaN,NaN, NaN, NaN
20050112,001424,694243,33.139217,-120.023262,22.0,15.003,33.055,40.780,855.40,0.0,3.596,14.675,14.649, NaN,24.472,   NaN,13.44,1014.06,73.76,13.79,10.1,11.2,13.9,14.0,296.4,297.5,13.2,13.4,NaN, NaN,12.9,278.5,264.1,1105488865,1105488865,1,1.7,000865,000865,284.9,33.139142,-120.023150,-0.50,NaN,NaN,15.007, NaN,NaN,NaN, NaN, NaN
20050112,001454,694272,33.139123,-120.023503,21.7,15.003,33.054,40.779,856.37,0.0,3.521,14.675,14.649, NaN,24.472,   NaN,13.27,1014.13,72.06,13.61,7.1,9.1,14.8,15.1,293.8,295.9,14.2,14.5,NaN, NaN,13.5,263.4,235.7,1105488896,1105488896,1,1.1,000895,000896,284.9,33.139055,-120.023398,-0.42,NaN,NaN,15.007, NaN,NaN,NaN, NaN, NaN
20050112,001524,694302,33.139057,-120.023720,22.0,15.003,33.053,40.777,693.27,0.0,3.502,14.675,14.649, NaN,24.471,   NaN,13.25,1014.14,71.31,13.60,6.8,8.0,13.8,14.1,294.0,295.2,13.2,13.6,NaN, NaN,13.8,251.8,95.3,1105488925,1105488925,1,0.5,000925,000925,281.5,33.138993,-120.023593,-0.30,NaN,NaN,15.007, NaN,NaN,NaN, NaN, NaN
20050112,001553,694332,33.138970,-120.023910,21.3,15.003,33.050,40.774,605.75,0.0,3.521,14.674,14.648, NaN,24.468,   NaN,13.26,1014.13,71.74,13.60,8.7,10.5,13.6,13.8,294.4,296.2,13.2,13.4,NaN, NaN,11.6,169.8,219.0,1105488955,1105488955,1,1.2,000954,000955,281.3,33.138887,-120.023770,-0.35,NaN,NaN,15.007, NaN,NaN,NaN, NaN, NaN
20050112,001624,694363,33.138865,-120.024055,20.1,15.008,33.005,40.729,621.41,0.0,3.634,14.674,14.647, NaN,24.433,   NaN,13.20,1014.11,71.19,13.57,10.8,12.7,13.8,14.1,293.4,295.3,13.5,13.8,NaN, NaN,12.1,204.0,285.9,1105488985,1105488985,1,1.3,000985,000985,274.9,33.138808,-120.023913,-0.69,NaN,NaN,15.012, NaN,NaN,NaN, NaN, NaN
20050112,001655,694393,33.138730,-120.024297,21.2,15.024,33.036,40.779,891.65,0.0,3.596,14.675,14.648, NaN,24.453,   NaN,13.32,1014.21,72.00,13.67,14.4,14.8,13.2,13.7,296.0,296.3,12.8,13.4,NaN, NaN,11.5,252.1,233.4,1105489016,1105489016,1,1.6,001016,001016,286.9,33.138648,-120.024172,-0.42,NaN,NaN,15.028, NaN,NaN,NaN, NaN, NaN
20050112,001724,694422,33.138665,-120.024563,17.2,15.046,33.043,40.806,838.51,0.0,3.540,14.675,14.649, NaN,24.454,   NaN,13.34,1014.07,72.27,13.68,10.5,9.3,13.5,14.2,298.0,297.2,13.0,13.6,NaN, NaN,11.2,283.8,271.7,1105489045,1105489045,1,1.8,001045,001045,293.8,33.138583,-120.024440,-0.36,NaN,NaN,15.050, NaN,NaN,NaN, NaN, NaN
20050112,001755,694454,33.138635,-120.024787,8.0,15.038,33.078,40.839,423.67,0.0,3.596,14.675,14.648, NaN,24.482,   NaN,13.26,1014.06,72.17,13.60,358.7,1.0,15.0,15.2,292.7,295.2,14.4,14.6,NaN, NaN,13.1,255.9,251.0,1105489076,1105489076,1,2.0,001075,001076,290.1,33.138570,-120.024663,-0.02,NaN,NaN,15.042, NaN,NaN,NaN, NaN, NaN
20050112,001825,694484,33.138610,-120.025090,21.1,15.071,33.034,40.820,782.27,0.0,3.879,14.674,14.645, NaN,24.441,   NaN,13.24,1014.05,72.20,13.58,1.4,4.8,15.4,15.2,292.5,296.1,14.7,14.5,NaN, NaN,13.7,274.2,269.2,1105489106,1105489106,1,2.2,001105,001106,284.0,33.138567,-120.024955,-0.17,NaN,NaN,15.075, NaN,NaN,NaN, NaN, NaN
20050112,001855,694513,33.138567,-120.025478,17.5,15.075,32.856,40.626,872.41,0.0,3.540,14.674,14.646, NaN,24.303,   NaN,13.26,1014.07,72.02,13.60,8.6,10.7,15.0,15.4,295.1,297.2,14.1,14.5,NaN, NaN,14.1,221.6,224.7,1105489136,1105489136,1,2.8,001136,001136,283.2,33.138512,-120.025332,-0.25,NaN,NaN,15.079, NaN,NaN,NaN, NaN, NaN
20050112,001925,694543,33.138490,-120.025798,21.4,15.056,32.986,40.753,846.42,0.0,3.747,14.674,14.646, NaN,24.408,   NaN,13.29,1014.00,72.07,13.60,8.9,10.3,15.0,15.5,296.0,297.3,14.1,14.6,NaN, NaN,14.2,326.7,271.1,1105489166,1105489166,1,1.7,001165,001166,288.1,33.138433,-120.025660,-0.23,NaN,NaN,15.060, NaN,NaN,NaN, NaN, NaN
20050112,001955,694573,33.138455,-120.026103,21.4,15.044,32.925,40.674,792.37,0.0,3.483,14.674,14.644, NaN,24.363,   NaN,13.31,1014.06,72.32,13.62,6.5,7.2,14.9,15.2,296.0,296.8,14.1,14.4,NaN, NaN,14.2,256.8,250.9,1105489196,1105489196,1,2.6,001196,001196,288.9,33.138390,-120.025963,-0.10,NaN,NaN,15.048, NaN,NaN,NaN, NaN, NaN
20050112,002025,694604,33.138423,-120.026365,22.1,15.014,32.955,40.679,791.61,0.0,3.540,14.674,14.645, NaN,24.393,   NaN,13.32,1014.08,72.54,13.62,5.2,6.0,14.6,14.6,295.6,296.5,13.8,13.8,NaN, NaN,14.0,254.4,249.5,1105489226,1105489226,1,1.9,001225,001226,285.8,33.138373,-120.026228,0.25,NaN,NaN,15.018, NaN,NaN,NaN, NaN, NaN
20050112,002055,694634,33.138378,-120.026627,21.6,15.010,33.065,40.797,769.01,0.0,3.634,14.674,14.645, NaN,24.478,   NaN,13.31,1014.03,72.59,13.63,9.6,10.9,14.0,14.3,296.4,297.7,13.3,13.6,NaN, NaN,13.9,180.2,252.5,1105489257,1105489256,1,1.1,001256,001256,275.5,33.138342,-120.026475,-0.31,NaN,NaN,15.014, NaN,NaN,NaN, NaN, NaN
20050112,002125,694664,33.138217,-120.026832,21.8,15.004,33.061,40.787,747.48,0.0,3.577,14.673,14.643, NaN,24.476,   NaN,13.34,1014.09,72.84,13.64,17.4,17.6,13.5,13.9,297.4,297.5,13.1,13.4,NaN, NaN,12.5,235.8,220.2,1105489286,1105489286,1,2.2,001286,001286,272.1,33.138185,-120.026660,-0.68,NaN,NaN,15.008, NaN,NaN,NaN, NaN, NaN
20050112,002154,694693,33.138068,-120.026967,21.8,15.003,33.053,40.777,755.67,0.0,3.596,14.673,14.642, NaN,24.470,   NaN,13.38,1014.22,73.33,13.67,15.6,16.1,13.3,13.5,294.5,295.0,13.1,13.2,NaN, NaN,13.5,185.8,208.3,1105489316,1105489315,1,2.7,001315,001315,288.8,33.138003,-120.026820,-0.60,NaN,NaN,15.007, NaN,NaN,NaN, NaN, NaN
20050112,002225,694723,33.137978,-120.027177,22.0,15.003,33.048,40.771,694.66,0.0,3.577,14.673,14.643, NaN,24.467,   NaN,13.36,1014.05,73.05,13.65,1.6,4.1,13.8,14.2,289.9,292.4,13.5,13.8,NaN, NaN,15.8,257.2,216.8,1105489346,1105489346,1,2.6,001346,001346,294.4,33.137905,-120.027050,-0.36,NaN,NaN,15.007, NaN,NaN,NaN, NaN, NaN
20050112,002255,694753,33.137982,-120.027443,21.7,15.002,33.039,40.761,485.36,0.0,3.615,14.673,14.642, NaN,24.460,   NaN,13.25,1014.08,71.92,13.56,354.9,357.9,14.9,15.0,288.3,291.3,14.2,14.4,NaN, NaN,14.2,262.4,267.5,1105489377,1105489377,1,1.8,001376,001377,292.4,33.137903,-120.027328,0.01,NaN,NaN,15.006, NaN,NaN,NaN, NaN, NaN
20050112,002325,694784,33.137985,-120.027727,21.9,15.004,33.033,40.757,575.46,0.0,3.653,14.671,14.642, NaN,24.455,   NaN,13.23,1014.16,71.53,13.54,356.5,359.6,14.8,14.8,288.6,291.8,14.0,14.0,NaN, NaN,15.1,274.5,272.5,1105489407,1105489407,1,1.5,001406,001407,287.2,33.137923,-120.027602,0.18,NaN,NaN,15.008, NaN,NaN,NaN, NaN, NaN
20050112,002355,694814,33.137962,-120.028053,21.8,15.003,33.033,40.755,604.34,0.0,3.615,14.671,14.642, NaN,24.455,   NaN,13.29,1014.10,71.76,13.61,1.3,2.5,14.7,15.0,290.0,291.4,13.9,14.2,NaN, NaN,13.7,271.8,257.5,1105489437,1105489437,1,1.9,001436,001437,286.1,33.137905,-120.027917,0.26,NaN,NaN,15.007, NaN,NaN,NaN, NaN, NaN
20050112,002425,694843,33.137930,-120.028305,21.7,15.001,33.029,40.750,339.08,0.0,3.634,14.670,14.641, NaN,24.453,   NaN,13.25,1014.08,71.33,13.56,4.4,4.0,15.3,15.8,290.2,289.9,14.5,15.0,NaN, NaN,15.1,288.6,284.7,1105489467,1105489467,1,1.7,001466,001467,283.1,33.137883,-120.028183,0.01,NaN,NaN,15.005, NaN,NaN,NaN, NaN, NaN
20050112,002455,694873,33.137863,-120.028585,16.0,15.036,32.988,40.737,368.16,0.0,3.615,14.669,14.640, NaN,24.414,   NaN,13.20,1014.17,70.98,13.52,5.9,6.5,14.7,15.1,290.7,291.1,14.0,14.4,NaN, NaN,13.0,236.6,218.7,1105489496,1105489496,1,2.2,001496,001496,282.2,33.137808,-120.028435,0.02,NaN,NaN,15.040, NaN,NaN,NaN, NaN, NaN
20050112,002525,694903,33.137790,-120.028843,21.6,15.030,33.031,40.779,484.89,0.0,3.672,14.668,14.639, NaN,24.448,   NaN,13.26,1014.07,71.38,13.58,9.5,11.3,14.7,15.2,292.9,294.6,14.1,14.6,NaN, NaN,14.3,243.9,235.8,1105489527,1105489526,1,2.8,001526,001526,279.6,33.137738,-120.028713,-0.29,NaN,NaN,15.034, NaN,NaN,NaN, NaN, NaN
20050112,002555,694934,33.137662,-120.029062,5.6,15.031,32.869,40.601,421.53,0.0,3.634,14.670,14.638, NaN,24.323,   NaN,13.19,1014.17,70.42,13.53,13.2,15.3,15.2,16.0,295.2,297.2,14.7,15.4,NaN, NaN,11.7,195.3,214.0,1105489556,1105489556,1,2.7,001556,001556,280.1,33.137605,-120.028905,-0.13,NaN,NaN,15.035, NaN,NaN,NaN, NaN, NaN
20050112,002625,694964,33.137582,-120.029300,1.7,15.016,33.093,40.834,328.30,0.0,0.935,14.670,14.639, NaN,24.499,   NaN,13.21,1014.18,70.50,13.52,10.6,12.1,14.3,15.1,297.2,298.4,13.9,14.6,NaN, NaN,12.0,268.8,272.1,1105489586,1105489586,1,2.0,001586,001586,296.1,33.137505,-120.029190,-0.16,NaN,NaN,15.020, NaN,NaN,NaN, NaN, NaN
20050112,002655,694994,33.137605,-120.029643,6.6,15.018,33.083,40.825,250.10,0.0,5.446,14.670,14.639, NaN,24.490,   NaN,13.21,1014.17,70.77,13.52,357.5,359.2,13.9,13.9,294.6,296.4,13.1,13.1,NaN, NaN,12.9,327.4,314.6,1105489617,1105489617,1,2.4,001616,001617,301.9,33.137535,-120.029555,0.15,NaN,NaN,15.022, NaN,NaN,NaN, NaN, NaN
20050112,002725,695023,33.137722,-120.030037,19.1,15.058,33.050,40.825,298.95,0.0,3.558,14.671,14.638, NaN,24.456,   NaN,13.31,1014.19,72.11,13.58,352.1,352.4,13.6,12.8,294.3,294.5,12.4,11.7,NaN, NaN,12.8,227.1,255.1,1105489647,1105489647,1,3.5,001646,001647,299.6,33.137633,-120.029950,0.41,NaN,NaN,15.062, NaN,NaN,NaN, NaN, NaN
20050112,002755,695053,33.137840,-120.030502,22.0,15.213,32.977,40.890,280.09,0.0,3.785,14.671,14.637, NaN,24.367,   NaN,13.35,1014.19,73.17,13.65,358.1,357.6,13.5,13.1,297.6,297.0,12.1,11.7,NaN, NaN,14.5,284.5,285.1,1105489677,1105489677,1,2.3,001676,001677,295.6,33.137757,-120.030408,0.41,NaN,NaN,15.217, NaN,NaN,NaN, NaN, NaN
20050112,002825,695083,33.137917,-120.031055,22.6,15.064,33.061,40.844,393.19,0.0,3.709,14.665,14.635, NaN,24.464,   NaN,13.33,1014.20,73.28,13.61,358.5,0.5,13.8,13.9,295.4,297.5,12.3,12.4,NaN, NaN,14.7,324.6,287.7,1105489707,1105489707,1,2.7,001706,001707,297.1,33.137840,-120.030953,0.02,NaN,NaN,15.068, NaN,NaN,NaN, NaN, NaN
20050112,002855,695114,33.138050,-120.031580,17.1,15.005,33.083,40.813,431.04,0.0,3.615,14.663,14.632, NaN,24.494,   NaN,13.36,1014.17,73.82,13.63,354.7,357.5,14.1,14.2,291.9,295.0,12.4,12.5,NaN, NaN,13.0,287.2,283.9,1105489736,1105489736,1,3.8,001736,001736,295.7,33.137965,-120.031467,0.17,NaN,NaN,15.009, NaN,NaN,NaN, NaN, NaN
20050112,002926,695144,33.138153,-120.032117,21.3,15.012,33.073,40.807,470.40,0.0,3.747,14.661,14.628, NaN,24.484,   NaN,13.34,1014.22,74.01,13.61,357.1,358.8,14.4,14.4,294.2,296.2,12.8,12.8,NaN, NaN,12.2,254.3,266.9,1105489767,1105489767,1,3.9,001766,001767,296.1,33.138067,-120.032023,0.09,NaN,NaN,15.016, NaN,NaN,NaN, NaN, NaN
20050112,002955,695173,33.138278,-120.032618,9.7,15.021,32.856,40.576,483.37,0.0,3.653,14.662,14.629, NaN,24.315,   NaN,13.30,1014.18,73.80,13.58,356.4,358.6,14.6,14.4,294.0,296.5,12.9,12.8,NaN, NaN,12.9,260.6,269.4,1105489797,1105489796,1,3.2,001796,001796,296.0,33.138198,-120.032493,-0.09,NaN,NaN,15.025, NaN,NaN,NaN, NaN, NaN
20050112,003026,695205,33.138427,-120.033138,3.5,15.018,33.070,40.811,488.51,0.0,3.502,14.661,14.628, NaN,24.480,   NaN,13.23,1014.16,73.06,13.51,352.8,356.7,15.0,14.7,289.9,294.4,13.4,13.0,NaN, NaN,12.6,226.8,272.2,1105489827,1105489827,1,2.8,001827,001827,299.2,33.138340,-120.033028,0.33,NaN,NaN,15.022, NaN,NaN,NaN, NaN, NaN
20050112,003055,695233,33.138597,-120.033695,2.0,15.038,33.058,40.816,512.06,0.0,0.897,14.661,14.628, NaN,24.467,   NaN,13.25,1014.15,72.72,13.53,353.7,357.4,15.1,14.5,292.5,296.8,13.3,12.7,NaN, NaN,13.2,285.7,289.5,1105489857,1105489857,1,3.9,001856,001857,300.6,33.138508,-120.033608,0.13,NaN,NaN,15.042, NaN,NaN,NaN, NaN, NaN
20050112,003125,695263,33.138792,-120.034277,9.9,15.052,33.047,40.817,470.39,0.0,3.615,14.662,14.629, NaN,24.455,   NaN,13.29,1014.14,72.87,13.56,356.7,358.1,15.2,14.5,298.3,300.1,13.3,12.6,NaN, NaN,14.1,13.2,298.5,1105489886,1105489886,1,2.4,001886,001886,304.4,33.138697,-120.034188,0.29,NaN,NaN,15.056, NaN,NaN,NaN, NaN, NaN
20050112,003156,695294,33.138925,-120.034718,0.9,15.056,33.061,40.836,393.39,0.0,3.653,14.664,14.632, NaN,24.465,   NaN,13.30,1014.17,73.13,13.57,354.8,356.2,14.8,14.4,295.5,297.3,13.2,12.7,NaN, NaN,13.1,318.9,306.3,1105489917,1105489917,1,2.3,001916,001917,294.0,33.138860,-120.034605,0.04,NaN,NaN,15.060, NaN,NaN,NaN, NaN, NaN
20050112,003225,695324,33.138967,-120.034998,1.7,15.059,33.062,40.840,435.92,0.0,3.691,14.661,14.629, NaN,24.466,   NaN,13.38,1014.24,74.15,13.66,355.0,356.7,13.4,13.2,289.7,291.6,12.3,12.1,NaN, NaN,12.9,299.7,298.1,1105489947,1105489946,1,1.5,001946,001946,281.9,33.138900,-120.034858,0.20,NaN,NaN,15.063, NaN,NaN,NaN, NaN, NaN
20050112,003255,695353,33.138912,-120.035413,3.2,15.085,33.045,40.845,476.76,0.0,3.709,14.662,14.631, NaN,24.446,   NaN,13.33,1014.20,74.09,13.64,358.4,3.9,13.4,13.6,284.6,289.6,12.4,12.6,NaN, NaN,13.3,245.6,250.1,1105489976,1105489976,1,4.2,001976,001976,280.2,33.138857,-120.035277,-0.02,NaN,NaN,15.089, NaN,NaN,NaN, NaN, NaN
20050112,003325,695383,33.138888,-120.036045,5.3,15.180,32.964,40.845,457.75,0.0,3.898,14.663,14.631, NaN,24.364,   NaN,13.32,1014.10,73.92,13.60,4.5,7.9,15.1,15.2,288.3,291.7,13.6,13.7,NaN, NaN,12.6,293.2,273.2,1105490007,1105490007,1,4.0,002006,002007,290.9,33.138818,-120.035937,-0.30,NaN,NaN,15.184, NaN,NaN,NaN, NaN, NaN
20050112,003355,695413,33.139013,-120.036610,6.3,15.245,33.025,40.973,411.08,0.0,3.898,14.661,14.630, NaN,24.397,   NaN,13.25,1014.01,72.76,13.52,358.0,0.2,16.3,15.8,290.6,293.0,14.6,14.0,NaN, NaN,14.9,291.7,295.8,1105490037,1105490037,1,3.3,002036,002037,302.4,33.138928,-120.036532,-0.07,NaN,NaN,15.249, NaN,NaN,NaN, NaN, NaN
20050112,003425,695444,33.139175,-120.037157,3.0,15.391,32.939,41.013,357.70,0.0,3.747,14.660,14.630, NaN,24.298,   NaN,13.27,1014.13,72.10,13.51,347.6,349.7,15.2,14.6,286.3,288.5,13.4,12.8,NaN, NaN,13.9,289.4,280.9,1105490067,1105490067,1,3.8,002066,002067,298.6,33.139085,-120.037072,0.08,NaN,NaN,15.395, NaN,NaN,NaN, NaN, NaN
20050112,003455,695474,33.139372,-120.037743,2.4,15.384,32.984,41.057,280.16,0.0,3.691,14.657,14.628, NaN,24.334,   NaN,13.37,1014.14,72.97,13.63,346.3,347.2,14.5,14.0,286.0,286.8,12.6,12.1,NaN, NaN,13.7,303.5,308.4,1105490097,1105490096,1,4.0,002096,002096,300.2,33.139282,-120.037643,0.29,NaN,NaN,15.388, NaN,NaN,NaN, NaN, NaN
20050112,003526,695504,33.139577,-120.038332,2.8,15.383,32.999,41.073,264.46,0.0,3.634,14.659,14.628, NaN,24.346,   NaN,13.40,1014.07,73.55,13.66,349.5,352.0,15.3,14.5,290.0,292.7,13.3,12.6,NaN, NaN,13.5,264.9,278.6,1105490127,1105490127,1,4.6,002126,002127,298.9,33.139487,-120.038260,0.13,NaN,NaN,15.387, NaN,NaN,NaN, NaN, NaN
20050112,003556,695535,33.139767,-120.038937,4.5,15.385,33.011,41.089,292.65,0.0,3.634,14.662,14.632, NaN,24.355,   NaN,13.34,1014.08,73.20,13.60,351.7,355.2,16.0,15.1,291.7,295.6,14.0,13.2,NaN, NaN,12.8,278.7,294.7,1105490157,1105490157,1,3.9,002157,002157,299.1,33.139682,-120.038835,0.24,NaN,NaN,15.389, NaN,NaN,NaN, NaN, NaN